EW4729 Weather Reports


Display with metric or nautical units.
time (UTC)temp
F
wind
direction
speed
MPH
gust
MPH
rain 1hr
in
rain 24hr
in
rain mn
in
humidity
%
barometer
mb
20260831154054 89 0 0.0 6.0 0.00 0.00 0.00 71 1017.5
20260831153553 89 190 2.0 6.0 0.00 0.00 0.00 71 1017.5
20260831153119 89 153 3.0 6.0 0.00 0.00 0.00 73 1017.4
20260831152553 88 0 1.0 8.0 0.00 0.00 0.00 74 1017.5
20260831152053 88 194 2.0 9.0 0.00 0.00 0.00 76 1017.4
20260831151605 88 194 5.0 9.0 0.00 0.00 0.00 77 1017.4
20260831151053 87 186 1.0 6.0 0.00 0.00 0.00 77 1017.3
20260831150553 87 172 3.0 6.0 0.00 0.00 0.00 78 1017.3
20260831150059 87 210 0.0 4.0 0.00 0.00 0.00 81 1017.3
20260831145556 86 0 0.0 7.0 0.00 0.00 0.00 81 1017.3
20260831145057 86 191 3.0 7.0 0.00 0.00 0.00 82 1017.4
20260831144658 86 215 1.0 7.0 0.00 0.00 0.00 84 1017.3
20260831144053 85 227 3.0 7.0 0.00 0.00 0.00 85 1017.4
20260831143556 84 196 2.0 6.0 0.00 0.00 0.00 86 1017.2
20260831143104 84 0 1.0 6.0 0.00 0.00 0.00 88 1017.1
20260831142557 83 207 4.0 6.0 0.00 0.00 0.00 89 1017.2
20260831142053 83 207 2.0 6.0 0.00 0.00 0.00 91 1017.2
20260831141600 82 0 0.0 0.0 0.00 0.00 0.00 92 1017.2
20260831141054 82 0 0.0 0.0 0.00 0.00 0.00 93 1017.2
20260831140553 81 0 0.0 0.0 0.00 0.00 0.00 93 1017.1
20260831140105 81 0 0.0 0.0 0.00 0.00 0.00 94 1017.1
20260831135553 80 0 0.0 0.0 0.00 0.00 0.00 94 1017.1
20260831135053 80 0 0.0 0.0 0.00 0.00 0.00 94 1017.0
20260831134600 79 0 0.0 0.0 0.00 0.00 0.00 94 1017.0
20260831134052 79 0 0.0 1.0 0.00 0.00 0.00 94 1017.0
20260831133552 78 0 0.0 1.0 0.00 0.00 0.00 94 1016.9
20260831133103 78 0 0.0 2.0 0.00 0.00 0.00 94 1016.9
20260831132555 77 0 0.0 2.0 0.00 0.00 0.00 94 1016.8
20260831132055 77 0 1.0 2.0 0.00 0.00 0.00 94 1016.7
20260831131605 77 0 0.0 2.0 0.00 0.00 0.00 94 1016.7
20260831131053 76 0 0.0 0.0 0.00 0.00 0.00 94 1016.6
20260831130553 76 0 0.0 1.0 0.00 0.00 0.00 93 1016.5
20260831130109 75 0 0.0 1.0 0.00 0.00 0.00 93 1016.5
20260831125553 74 226 0.0 0.0 0.00 0.00 0.00 93 1016.4
20260831125053 74 0 0.0 0.0 0.00 0.00 0.00 93 1016.4
20260831124603 74 0 0.0 0.0 0.00 0.00 0.00 92 1016.3
20260831124053 73 0 0.0 0.0 0.00 0.00 0.00 92 1016.2
20260831123556 73 0 0.0 0.0 0.00 0.00 0.00 92 1016.2
20260831123058 73 0 0.0 0.0 0.00 0.00 0.00 92 1016.3
20260831122553 73 0 0.0 0.0 0.00 0.00 0.00 92 1016.2
20260831122056 73 0 0.0 0.0 0.00 0.00 0.00 92 1016.1
20260831121603 73 0 0.0 0.0 0.00 0.00 0.00 92 1016.0
20260831121053 73 0 0.0 0.0 0.00 0.00 0.00 92 1016.0
20260831120556 73 0 0.0 0.0 0.00 0.00 0.00 92 1016.1
20260831120112 73 0 0.0 1.0 0.00 0.00 0.00 92 1015.9
20260831115552 73 0 0.0 1.0 0.00 0.00 0.00 92 1015.9
20260831115053 73 0 0.0 1.0 0.00 0.00 0.00 92 1016.0
20260831114600 73 0 0.0 0.0 0.00 0.00 0.00 91 1016.1
20260831114053 74 0 0.0 0.0 0.00 0.00 0.00 92 1016.1
20260831113553 74 0 0.0 0.0 0.00 0.00 0.00 92 1016.0
20260831113110 74 0 0.0 0.0 0.00 0.00 0.00 92 1016.1
20260831112553 74 0 0.0 0.0 0.00 0.00 0.00 92 1016.0
20260831112052 74 0 0.0 0.0 0.00 0.00 0.00 92 1016.0
20260831111600 74 0 0.0 0.0 0.00 0.00 0.00 92 1016.0
20260831111052 74 0 0.0 1.0 0.00 0.00 0.00 92 1016.0
20260831110553 74 0 0.0 1.0 0.00 0.00 0.00 91 1016.1
20260831110105 74 0 0.0 0.0 0.00 0.00 0.00 91 1016.0
20260831105553 74 0 0.0 0.0 0.00 0.00 0.00 91 1015.9
20260831105053 74 0 0.0 0.0 0.00 0.00 0.00 91 1015.8
20260831104614 74 0 0.0 0.0 0.00 0.00 0.00 91 1015.8
20260831104052 74 0 0.0 0.0 0.00 0.00 0.00 91 1015.8
20260831103552 75 0 0.0 0.0 0.00 0.00 0.00 91 1015.9
20260831103110 75 0 0.0 0.0 0.00 0.00 0.00 91 1015.9
20260831102553 75 0 0.0 0.0 0.00 0.00 0.00 91 1015.8
20260831102052 75 0 0.0 0.0 0.00 0.00 0.00 91 1015.9
20260831101605 75 0 0.0 0.0 0.00 0.00 0.00 91 1016.0
20260831101053 75 0 0.0 0.0 0.00 0.00 0.00 91 1015.9
20260831100553 75 0 0.0 0.0 0.00 0.00 0.00 91 1016.0
20260831100135 75 0 0.0 0.0 0.00 0.00 0.00 91 1016.0
20260831095554 75 0 0.0 0.0 0.00 0.00 0.00 91 1016.0
20260831095053 75 0 0.0 0.0 0.00 0.00 0.00 91 1015.9
20260831094604 76 0 0.0 0.0 0.00 0.00 0.00 91 1015.8
20260831094053 76 0 0.0 0.0 0.00 0.00 0.00 91 1015.8
20260831093553 76 0 0.0 0.0 0.00 0.00 0.00 91 1015.7
20260831093101 76 0 0.0 0.0 0.00 0.00 0.00 91 1015.8
20260831092556 76 0 0.0 2.0 0.00 0.00 0.00 91 1015.9
20260831092053 76 0 0.0 2.0 0.00 0.00 0.00 91 1015.8
20260831091603 76 186 0.0 3.0 0.00 0.00 0.00 91 1015.8
20260831091053 76 0 1.0 3.0 0.00 0.00 0.00 91 1015.7
20260831090553 76 186 0.0 0.0 0.00 0.00 0.00 90 1015.8
20260831090100 76 0 0.0 0.0 0.00 0.00 0.00 90 1015.8
20260831085553 76 0 0.0 0.0 0.00 0.00 0.00 90 1016.0
20260831085053 76 0 0.0 0.0 0.00 0.00 0.00 90 1015.9
20260831084637 76 0 0.0 0.0 0.00 0.00 0.00 90 1016.0
20260831084052 76 0 0.0 0.0 0.00 0.00 0.00 90 1016.0
20260831083552 76 0 0.0 0.0 0.00 0.00 0.00 90 1016.0
20260831083104 76 0 0.0 0.0 0.00 0.00 0.00 90 1016.0
20260831082553 76 0 0.0 0.0 0.00 0.00 0.00 89 1016.1
20260831082053 76 0 0.0 0.0 0.00 0.00 0.00 89 1016.0
20260831081612 76 0 0.0 0.0 0.00 0.00 0.00 89 1016.0
20260831081053 76 0 0.0 0.0 0.00 0.00 0.00 89 1016.0
20260831080554 76 0 0.0 0.0 0.00 0.00 0.00 89 1015.9
20260831080128 76 0 0.0 0.0 0.00 0.00 0.00 89 1016.1
20260831075552 76 0 0.0 0.0 0.00 0.00 0.00 89 1016.0
20260831075052 76 0 0.0 0.0 0.00 0.00 0.00 89 1016.1
20260831074609 76 0 0.0 0.0 0.00 0.00 0.00 89 1016.2
20260831074052 76 0 0.0 0.0 0.00 0.00 0.00 89 1016.1
20260831073552 76 0 0.0 0.0 0.00 0.00 0.00 89 1016.1
20260831073105 77 0 0.0 0.0 0.00 0.00 0.00 88 1016.3
20260831072553 77 0 0.0 0.0 0.00 0.00 0.00 88 1016.3
20260831072053 77 0 0.0 0.0 0.00 0.00 0.00 88 1016.2
20260831071608 77 0 0.0 0.0 0.00 0.00 0.00 88 1016.2
20260831071052 77 0 0.0 0.0 0.00 0.00 0.00 88 1016.3
20260831070552 77 0 0.0 0.0 0.00 0.00 0.00 88 1016.3
20260831070106 77 0 0.0 0.0 0.00 0.00 0.00 87 1016.3
20260831065553 78 0 0.0 1.0 0.00 0.00 0.00 87 1016.2
20260831065053 78 0 0.0 1.0 0.00 0.00 0.00 87 1016.2
20260831064604 78 0 0.0 0.0 0.00 0.00 0.00 87 1016.3
20260831064053 78 0 0.0 0.0 0.00 0.00 0.00 87 1016.5
20260831063553 78 0 0.0 0.0 0.00 0.00 0.00 87 1016.4
20260831063112 78 0 0.0 0.0 0.00 0.00 0.00 86 1016.4
20260831062556 79 0 0.0 0.0 0.00 0.00 0.00 87 1016.5
20260831062053 79 0 0.0 0.0 0.00 0.00 0.00 87 1016.5
20260831061557 79 0 0.0 1.0 0.00 0.00 0.00 86 1016.5
20260831061053 79 0 0.0 1.0 0.00 0.00 0.00 86 1016.5
20260831060553 79 0 0.0 1.0 0.00 0.00 0.00 86 1016.5
20260831060105 79 0 0.0 0.0 0.00 0.00 0.00 86 1016.5
20260831055552 79 0 0.0 0.0 0.00 0.00 0.00 86 1016.5
20260831055052 80 0 0.0 0.0 0.00 0.00 0.00 85 1016.7
20260831054601 80 0 0.0 0.0 0.00 0.00 0.00 85 1016.5
20260831054053 80 0 0.0 0.0 0.00 0.00 0.00 85 1016.5
20260831053553 80 0 0.0 2.0 0.00 0.00 0.00 85 1016.5
20260831053117 80 0 0.0 3.0 0.00 0.00 0.00 85 1016.4
20260831052552 80 186 0.0 4.0 0.00 0.00 0.00 85 1016.3
20260831052052 80 187 1.0 4.0 0.00 0.00 0.00 85 1016.3
20260831051602 80 187 1.0 4.0 0.00 0.00 0.00 84 1016.2
20260831051053 81 188 2.0 4.0 0.00 0.00 0.00 84 1016.2
20260831050552 81 0 0.0 4.0 0.00 0.00 0.00 84 1016.1
20260831050120 81 188 2.0 4.0 0.00 0.00 0.00 84 1016.0
20260831045553 81 187 2.0 4.0 0.00 0.00 0.00 84 1016.0
20260831045052 81 190 2.0 4.0 0.00 0.00 0.00 83 1016.2
20260831044600 81 188 2.0 5.0 0.00 0.00 0.00 83 1016.2
20260831044053 81 192 2.0 8.0 0.00 0.00 0.00 83 1016.0
20260831043552 82 196 3.0 8.0 0.00 0.00 0.00 83 1015.9
20260831043056 82 197 4.0 7.0 0.00 0.00 0.00 82 1016.0
20260831042552 82 200 4.0 7.0 0.00 0.00 0.00 82 1015.9
20260831042054 82 183 4.0 8.0 0.00 0.00 0.00 82 1016.0
20260831041620 82 196 4.0 8.0 0.00 0.00 0.00 81 1016.0
20260831041053 82 185 4.0 8.0 0.00 0.00 0.00 81 1016.0
20260831040556 83 198 4.0 7.0 0.00 0.00 0.00 81 1015.8
20260831040105 83 184 4.0 7.0 0.00 0.00 0.00 80 1016.0
20260831035552 83 199 4.0 7.0 0.00 0.00 0.00 80 1015.9
20260831035052 83 193 4.0 7.0 0.00 0.00 0.00 80 1015.7
20260831034559 83 197 4.0 7.0 0.00 0.00 0.00 79 1015.8
20260831034052 84 186 3.0 8.0 0.00 0.00 0.00 79 1015.7
20260831033553 84 171 4.0 9.0 0.00 0.00 0.00 79 1015.7
20260831033113 84 183 5.0 9.0 0.00 0.00 0.00 78 1015.6
20260831032555 84 211 4.0 8.0 0.00 0.00 0.00 78 1015.6
20260831032057 84 189 4.0 9.0 0.00 0.00 0.00 78 1015.5
20260831031605 84 169 4.0 9.0 0.00 0.00 0.00 77 1015.6
20260831031051 85 182 4.0 9.0 0.00 0.00 0.00 77 1015.5
20260831030551 85 201 4.0 9.0 0.00 0.00 0.00 76 1015.4
20260831030112 85 184 4.0 8.0 0.00 0.00 0.00 76 1015.3
20260831025551 85 188 3.0 10.0 0.00 0.00 0.00 75 1015.2
20260831025051 85 196 5.0 10.0 0.00 0.00 0.00 75 1015.2
20260831024606 86 192 4.0 7.0 0.00 0.00 0.00 74 1014.9
20260831024052 86 183 3.0 6.0 0.00 0.00 0.00 73 1014.8
20260831023552 86 188 2.0 5.0 0.00 0.00 0.00 72 1014.7
20260831023101 86 178 2.0 7.0 0.00 0.00 0.00 71 1014.6
20260831022552 87 178 3.0 7.0 0.00 0.00 0.00 71 1014.5
20260831022054 87 173 3.0 9.0 0.00 0.00 0.00 70 1014.4
20260831021605 87 197 3.0 9.0 0.00 0.00 0.00 70 1014.3
20260831021057 87 182 4.0 10.0 0.00 0.00 0.00 70 1014.1
20260831020555 87 184 4.0 10.0 0.00 0.00 0.00 69 1014.1
20260831020106 87 194 4.0 9.0 0.00 0.00 0.00 69 1014.1
20260831015554 88 182 3.0 7.0 0.00 0.00 0.00 68 1014.1
20260831015054 88 181 3.0 9.0 0.00 0.00 0.00 68 1013.9
20260831014604 88 169 2.0 10.0 0.00 0.00 0.00 68 1013.9
20260831014055 88 157 2.0 10.0 0.00 0.00 0.00 67 1013.8
20260831013553 88 142 3.0 8.0 0.00 0.00 0.00 66 1013.8
20260831013059 88 155 3.0 7.0 0.00 0.00 0.00 66 1013.7
20260831012553 89 181 3.0 7.0 0.00 0.00 0.00 65 1013.8
20260831012055 89 124 3.0 7.0 0.00 0.00 0.00 64 1013.7
20260831011607 89 154 2.0 5.0 0.00 0.00 0.00 62 1013.7
20260831011051 89 152 1.0 5.0 0.00 0.00 0.00 61 1013.7
20260831010555 90 157 1.0 5.0 0.00 0.00 0.00 61 1013.6
20260831010113 90 158 1.0 8.0 0.00 0.00 0.00 60 1013.6
20260831005554 90 0 2.0 8.0 0.00 0.00 0.00 60 1013.6
20260831005055 91 167 3.0 7.0 0.00 0.00 0.00 59 1013.6
20260831004606 91 161 2.0 7.0 0.00 0.00 0.00 59 1013.5
20260831004052 92 176 2.0 6.0 0.00 0.00 0.00 58 1013.5
20260831003551 92 140 2.0 6.0 0.00 0.00 0.00 58 1013.5
20260831003110 92 164 3.0 6.0 0.00 0.00 0.00 58 1013.5
20260831002551 92 174 2.0 6.0 0.00 0.00 0.00 58 1013.5
20260831002055 93 176 0.0 6.0 0.00 0.00 0.00 58 1013.4
20260831001604 93 172 1.0 6.0 0.00 0.00 0.00 58 1013.4
20260831001052 93 155 2.0 7.0 0.00 0.00 0.00 57 1013.4
20260831000555 93 153 2.0 7.0 0.00 0.00 0.00 57 1013.5
20260830235554 93 163 3.0 8.0 0.00 0.00 0.00 57 1013.4
20260830235051 93 141 3.0 9.0 0.00 0.00 0.00 57 1013.5
20260830234608 93 176 4.0 11.0 0.00 0.00 0.00 56 1013.6
20260830234051 93 179 6.0 11.0 0.00 0.00 0.00 56 1013.6
20260830233552 93 190 4.0 16.0 0.00 0.00 0.00 57 1013.6
20260830233104 93 190 6.0 16.0 0.00 0.00 0.00 57 1013.7
20260830232552 93 191 7.0 13.0 0.00 0.00 0.00 56 1013.6
20260830232051 94 191 6.0 17.0 0.00 0.00 0.00 56 1013.5
20260830231613 94 168 6.0 17.0 0.00 0.00 0.00 56 1013.5
20260830231054 94 193 7.0 16.0 0.00 0.00 0.00 55 1013.6
20260830230554 94 112 4.0 12.0 0.00 0.00 0.00 55 1013.6
20260830230058 94 171 3.0 12.0 0.00 0.00 0.00 55 1013.5
20260830225554 94 161 5.0 13.0 0.00 0.00 0.00 55 1013.5
20260830225052 95 155 6.0 14.0 0.00 0.00 0.00 55 1013.5
20260830224609 95 177 7.0 18.0 0.00 0.00 0.00 54 1013.5
20260830224051 95 123 6.0 18.0 0.00 0.00 0.00 54 1013.4
20260830223550 96 102 5.0 12.0 0.00 0.00 0.00 53 1013.4
20260830223107 96 180 6.0 17.0 0.00 0.00 0.00 53 1013.4
20260830222555 96 126 7.0 17.0 0.00 0.00 0.00 53 1013.4
20260830222054 97 94 6.0 18.0 0.00 0.00 0.00 53 1013.3
20260830221602 97 176 8.0 18.0 0.00 0.00 0.00 52 1013.3
20260830221055 98 152 3.0 13.0 0.00 0.00 0.00 49 1013.3
20260830220554 97 171 1.0 10.0 0.00 0.00 0.00 49 1013.3
20260830215555 97 125 3.0 10.0 0.00 0.00 0.00 49 1013.3
20260830215052 97 113 6.0 11.0 0.00 0.00 0.00 48 1013.3
20260830214611 98 100 3.0 11.0 0.00 0.00 0.00 48 1013.4
20260830214053 98 119 5.0 10.0 0.00 0.00 0.00 48 1013.3
20260830213551 97 96 1.0 8.0 0.00 0.00 0.00 49 1013.4
20260830213104 97 99 1.0 8.0 0.00 0.00 0.00 49 1013.4
20260830212555 97 103 1.0 8.0 0.00 0.00 0.00 49 1013.4
20260830212055 97 153 2.0 8.0 0.00 0.00 0.00 48 1013.6
20260830211558 98 90 2.0 10.0 0.00 0.00 0.00 47 1013.6
20260830211055 98 0 2.0 12.0 0.00 0.00 0.00 47 1013.7
20260830210554 99 117 3.0 12.0 0.00 0.00 0.00 46 1013.9
20260830210142 99 152 4.0 12.0 0.00 0.00 0.00 46 1013.8
20260830205555 99 60 3.0 8.0 0.00 0.00 0.00 45 1013.9
20260830205055 99 88 3.0 8.0 0.00 0.00 0.00 44 1013.9
20260830204611 100 166 3.0 8.0 0.00 0.00 0.00 45 1013.9
20260830204056 100 122 3.0 12.0 0.00 0.00 0.00 45 1014.0
20260830203555 100 194 5.0 12.0 0.00 0.00 0.00 45 1014.2
20260830203110 100 187 4.0 11.0 0.00 0.00 0.00 45 1014.4
20260830202555 99 190 5.0 11.0 0.00 0.00 0.00 45 1014.4
20260830202054 99 181 6.0 11.0 0.00 0.00 0.00 46 1014.5
20260830201609 99 173 5.0 11.0 0.00 0.00 0.00 46 1014.6
20260830201056 99 186 4.0 11.0 0.00 0.00 0.00 47 1014.7
20260830200552 99 103 4.0 12.0 0.00 0.00 0.00 46 1014.7
20260830200115 99 173 6.0 12.0 0.00 0.00 0.00 47 1014.9
20260830195555 98 109 4.0 10.0 0.00 0.00 0.00 47 1014.8
20260830195056 98 89 3.0 8.0 0.00 0.00 0.00 47 1014.9
20260830194645 98 192 2.0 9.0 0.00 0.00 0.00 48 1014.9
20260830194055 98 138 1.0 10.0 0.00 0.00 0.00 48 1015.0
20260830193557 98 73 4.0 16.0 0.00 0.00 0.00 47 1015.2
20260830193120 98 207 5.0 16.0 0.00 0.00 0.00 47 1015.2
20260830192554 98 175 5.0 9.0 0.00 0.00 0.00 49 1015.3
20260830192054 97 175 3.0 9.0 0.00 0.00 0.00 51 1015.4
20260830191612 96 198 5.0 10.0 0.00 0.00 0.00 52 1015.5
20260830191057 96 105 1.0 10.0 0.00 0.00 0.00 51 1015.7
20260830190555 96 161 4.0 10.0 0.00 0.00 0.00 51 1015.8
20260830190104 96 109 1.0 8.0 0.00 0.00 0.00 51 1015.9
20260830185555 96 86 3.0 8.0 0.00 0.00 0.00 49 1016.0
20260830185055 96 194 0.0 6.0 0.00 0.00 0.00 54 1016.1
20260830184614 96 94 2.0 8.0 0.00 0.00 0.00 53 1016.0
20260830184052 96 73 1.0 8.0 0.00 0.00 0.00 54 1016.2
20260830183558 96 180 2.0 9.0 0.00 0.00 0.00 54 1016.3
20260830183118 96 200 4.0 9.0 0.00 0.00 0.00 54 1016.4
20260830182554 96 194 4.0 8.0 0.00 0.00 0.00 55 1016.6
20260830182052 96 202 5.0 12.0 0.00 0.00 0.00 55 1016.5
20260830181602 96 150 3.0 12.0 0.00 0.00 0.00 55 1016.6
20260830181054 95 141 3.0 16.0 0.00 0.00 0.00 59 1016.6
20260830180552 94 181 7.0 16.0 0.00 0.00 0.00 57 1016.8
20260830180108 94 223 4.0 8.0 0.00 0.00 0.00 58 1016.8
20260830175554 95 84 2.0 9.0 0.00 0.00 0.00 57 1016.9
20260830175116 95 139 3.0 9.0 0.00 0.00 0.00 56 1017.1
20260830174558 95 211 5.0 9.0 0.00 0.00 0.00 56 1017.2
20260830174052 95 0 2.0 9.0 0.00 0.00 0.00 57 1017.1
20260830173554 95 129 4.0 10.0 0.00 0.00 0.00 57 1017.3
20260830173136 94 151 4.0 10.0 0.00 0.00 0.00 57 1017.4
20260830172552 94 163 4.0 11.0 0.00 0.00 0.00 60 1017.4
20260830172058 94 115 2.0 11.0 0.00 0.00 0.00 61 1017.4
20260830171605 93 195 5.0 11.0 0.00 0.00 0.00 60 1017.5
20260830171055 92 223 5.0 11.0 0.00 0.00 0.00 61 1017.6
20260830170554 92 187 5.0 11.0 0.00 0.00 0.00 63 1017.7
20260830165554 93 215 5.0 9.0 0.00 0.00 0.00 62 1017.8
20260830165054 93 229 4.0 10.0 0.00 0.00 0.00 63 1017.9
20260830164608 93 239 6.0 15.0 0.00 0.00 0.00 62 1018.0
20260830164054 93 210 6.0 15.0 0.00 0.00 0.00 63 1018.0
20260830163552 92 238 1.0 5.0 0.00 0.00 0.00 64 1018.0
20260830163104 91 153 1.0 8.0 0.00 0.00 0.00 65 1018.1
20260830162552 90 153 3.0 8.0 0.00 0.00 0.00 65 1018.1
20260830162052 90 188 5.0 8.0 0.00 0.00 0.00 67 1018.1
20260830161630 89 217 4.0 9.0 0.00 0.00 0.00 69 1018.1
20260830161051 88 175 5.0 9.0 0.00 0.00 0.00 71 1018.0
20260830160554 88 204 3.0 8.0 0.00 0.00 0.00 72 1018.0
20260830160103 87 205 4.0 8.0 0.00 0.00 0.00 71 1018.0
20260830155557 87 209 3.0 5.0 0.00 0.00 0.00 71 1018.0
20260830155056 87 234 1.0 4.0 0.00 0.00 0.00 72 1018.0
20260830154610 87 192 2.0 6.0 0.00 0.00 0.00 72 1018.0